Location: Gradaro
(45.0833°N, 10.8833°E)
Time: 23:19:18
(UTC+00:00)

FENGYUN 1C DEB - Pass Details

Date: 27 June 2021
Orbit: 744 x 851 km, 99.4° (Epoch: 27 July)

Event Time Altitude Azimuth Distance (km) Brightness Sun altitude
Exits shadow 00:52:24 22° 246° (WSW) 1,727 ? -18.4°
Maximum altitude 00:53:35 24° 265° (W) 1,650 ? -18.3°
Drops below altitude 10° 00:57:48 10° 318° (NW) 2,395 ? -18.0°
Sets 01:00:35 0° 333° (NNW) 3,311 ? -17.8°
